Regional Weather Roundup
Issued by NWS Binghamton, NY

Home | Current Version | Previous Version | Text Only | Print | Product List | Glossary On
Versions: 1 2 3 4 5 6 7 8 9 10 11 12 13 14 15 16 17 18 19 20 21 22 23 24 25 26 27 28 29 30 31 32 33 34 35 36 37 38 39 40 41 42 43 44 45 46 47 48 49 50
000
ASUS41 KBGM 031010
RWRBGM
RWRBGM
BINGHAMTON REGIONAL WEATHER ROUNDUP
NATIONAL WEATHER SERVICE BINGHAMTON NY
500 AM EST TUE MAR 03 2015

Note: "fair" indicates few or no clouds below 12,000 feet with no
significant weather and/or obstructions to visibility.

* = Station(s) that does not report precipitation, such as rain,
snow, etc, also no thunder or fog.

!NYZ009-015>018-022>025-036-037-044>046-055>057-062-031100
...CENTRAL NEW YORK...

CITY           SKY/WX    TMP DP  RH WIND       PRES   REMARKS
BINGHAMTON     PTCLDY    10   6  84 SW6       30.29R WCI   0
CORTLAND       FAIR       1   0  92 CALM      30.34R
DANSVILLE      PTCLDY     6   1  80 SE7       30.37F WCI  -6
ELMIRA         PTCLDY     3   1  91 CALM      30.36S
ITHACA         MOCLDY     4   1  87 CALM      30.35R
MONTICELLO     CLEAR      7   1  78 W5        30.32R WCI  -2
NORWICH        CLEAR     -6  -9  84 CALM      30.36R
ONEONTA        CLEAR      9   5  85 CALM      30.26R
PENN YAN       CLEAR     10   5  80 SW7       30.35R WCI  -1
ROME           MOCLDY    -5  -7  91 CALM      30.40R
SIDNEY         CLEAR      0  -2  92 CALM      30.36R
SYRACUSE       PTCLDY     0   0  98 CALM      30.37R
$$

!PAZ038>040-043-044-047-048-072-031100
...NORTHEAST PENNSYLVANIA...

CITY           SKY/WX    TMP DP  RH WIND       PRES   REMARKS
HAZLETON       CLEAR     12   9  85 CALM      30.33S
SCRANTON       PTCLDY    12   5  73 CALM      30.35S
TOWANDA*       PTCLDY     9   3  78 CALM      30.40S
$$
&&
KEY
WCI = WIND CHILL INDEX
VSB = VISIBILITY
HX  = HEAT INDEX
$$


USA.gov is the U.S. government's official web portal to all federal, state and local government web resources and services.